Regional Weather Roundup
Issued by NWS

Home | Current Version | Previous Version | Text Only | Print | Product List | Glossary On
Versions: 1 2 3 4 5 6 7 8 9 10 11 12 13 14 15 16 17 18 19 20 21 22 23 24 25 26 27 28 29 30 31 32 33 34 35 36 37 38 39 40 41 42 43 44 45 46 47 48 49 50
000
ASMX46 KSGX 252103
RWRMX

MEXICAN WEATHER ROUNDUP
NATIONAL WEATHER SERVICE SAN DIEGO CA
100 PM PST TUE NOV 25 2014

BAJA CALIFORNIA

CITY           SKY/WX    TMP DP  RH WIND       PRES   REMARKS
ENSENADA NW      N/A     73  32  21 W14       30.23F
LA PAZ         SUNNY     79  46  31 N23       30.01
LORETO         SUNNY     75  43  31 N23       30.04F
MEXICALI       SUNNY     73   1   6 E2        30.36
S.J. DEL CABO  SUNNY     84  37  18 N14       29.92F
TIJUANA        SUNNY     79   9   7 W7        30.29F

NORTHWESTERN MEXICO

CITY           SKY/WX    TMP DP  RH WIND       PRES   REMARKS
CHIHUAHUA      SUNNY     54   5  14 CALM      30.37
CULIACAN       SUNNY     90  64  43 NW12      29.91
GUAYMAS        SUNNY     82  -6   3 NW17      30.04
HERMOSILLO     SUNNY     79   7   6 CALM      30.19
JUAREZ         SUNNY     54  32  43 W12       30.30
LOS MOCHIS     SUNNY     86  10   6 N21       29.96F
OBREGON        SUNNY     82   5   5 N16       30.01

NORTHEASTERN MEXICO

CITY           SKY/WX    TMP DP  RH WIND       PRES   REMARKS
MATAMOROS      MOSUNNY   68  48  49 N16       30.31
MONCLOVA       SUNNY     70  41  35 SE6       30.24F
MONTERREY      MOSUNNY   68  34  28 N7        30.27F
NUEVO LAREDO   SUNNY     72  32  23 CALM      30.31
PIEDRAS NEGRAS SUNNY     66  37  34 NW7       30.30
REYNOSA        MOSUNNY   64  28  25 N12       30.30
SALTILLO       MOSUNNY   55  39  54 CALM      30.36F
TORREON        SUNNY     59   9  13 NW6       30.34F
VICTORIA       PTSUNNY   66  32  28 NW16      30.28

WESTERN MEXICO

CITY           SKY/WX    TMP DP  RH WIND       PRES   REMARKS
COLIMA         PTSUNNY   82  63  51 SW7       29.97F
DURANGO        SUNNY     57   0   9 N9        30.36F
GUADALAJARA    PTSUNNY   75  36  23 N7        30.16
MANZANILLO     PTSUNNY   86  75  70 SW7       29.81F HX  95
MAZATLAN       SUNNY     81  61  50 SW9       29.86F
PTO. VALLARTA  PTSUNNY   79  64  61 S7        29.89F
TEPIC          PTSUNNY   79  59  50 SE8       30.03F
URUAPAN        PTSUNNY   73  57  56 S9        30.15F

CENTRAL MEXICO

CITY           SKY/WX    TMP DP  RH WIND       PRES   REMARKS
CUERNAVACA     PTSUNNY   81  52  36 SE8       30.09F
MEXICO CITY    PTSUNNY   73  37  27 NE3       30.23F
MORELIA        PTSUNNY   79  37  22 S2        30.18
POZA RICA      CLOUDY    63  55  77 N16       30.24S
PUEBLA         PTSUNNY   70  50  49 S16       30.27F
QUERETARO      PTSUNNY   75  27  16 W12       30.22F
S. LUIS POTOSI PTSUNNY   64  21  19 NW12G23   30.28F
TAMPICO        CLOUDY    68  43  40 N20       30.23R
TOLUCA         PTSUNNY   70  32  24 W12       30.33F
VERACRUZ       CLOUDY    72  59  64 NW23G35   30.04S

SOUTHERN MEXICO

CITY           SKY/WX    TMP DP  RH WIND       PRES   REMARKS
ACAPULCO       MOSUNNY   86  75  70 SW7       29.85F HX  95
B. DE HUATULCO MOSUNNY   86  75  70 CALM      29.90  HX  95
MINATITLAN       N/A    N/A N/A N/A MISG        N/A
OAXACA         PTSUNNY   79  48  34 SW7       30.14F
PTO. ESCONDIDO SUNNY     86  75  70 W5        30.01F HX  95
TAPACHULA      PTSUNNY   86  79  79 W12       29.85F HX  99
TUX. GUTIERREZ PTSUNNY   81  68  65 W13G25    29.94F
VILLAHERMOSA   CLOUDY    79  73  83 W9        29.97R
ZIHUATANEJO    PTSUNNY   90  77  66 S6        29.86F HX 102

YUCATAN PENINSULA

CITY           SKY/WX    TMP DP  RH WIND       PRES   REMARKS
CAMPECHE       MOSUNNY   84  75  74 W12G23    29.88F
CANCUN         MOSUNNY   86  77  74 SE18      29.88F HX  97
CHETUMAL       MOSUNNY   86  77  74 E14       29.84F HX  97
C. DEL CARMEN  CLOUDY    82  75  78 NW6       29.92  HAZE
COZUMEL        MOSUNNY   81  77  89 S5        29.88F
MERIDA         PTSUNNY   86  73  66 NW5       29.88F

$$




USA.gov is the U.S. government's official web portal to all federal, state and local government web resources and services.